| time (UTC) | temp F | wind direction | speed MPH | gust MPH | rain 1hr in | rain 24hr in | rain mn in | humidity % | barometer mb |
| 20260504231613 | 57 | 42 | 8.0 | 13.0 | 0.00 | 0.00 | 0.00 | 15 | 1015.4 |
| 20260504231109 | 54 | 51 | 6.0 | 14.0 | 0.00 | 0.00 | 0.00 | 15 | 1015.4 |
| 20260504230605 | 54 | 90 | 3.0 | 10.0 | 0.00 | 0.00 | 0.00 | 15 | 1015.3 |
| 20260504230104 | 55 | 286 | 7.0 | 14.0 | 0.00 | 0.00 | 0.00 | 15 | 1015.3 |
| 20260504225601 | 54 | 1 | 7.0 | 13.0 | 0.00 | 0.00 | 0.00 | 15 | 1015.4 |
| 20260504225058 | 55 | 340 | 8.0 | 12.0 | 0.00 | 0.00 | 0.00 | 15 | 1015.0 |
| 20260504224554 | 54 | 27 | 7.0 | 9.0 | 0.00 | 0.00 | 0.00 | 15 | 1015.2 |
| 20260504224052 | 53 | 298 | 5.0 | 15.0 | 0.00 | 0.00 | 0.00 | 15 | 1014.9 |
| 20260504223549 | 54 | 44 | 8.0 | 17.0 | 0.00 | 0.00 | 0.00 | 15 | 1015.0 |
| 20260504223044 | 55 | 351 | 5.0 | 13.0 | 0.00 | 0.00 | 0.00 | 15 | 1015.3 |
| 20260504222541 | 58 | 47 | 5.0 | 20.0 | 0.00 | 0.00 | 0.00 | 15 | 1015.2 |
| 20260504222039 | 57 | 302 | 0.0 | 14.0 | 0.00 | 0.00 | 0.00 | 15 | 1015.2 |
| 20260504221536 | 56 | 56 | 9.0 | 18.0 | 0.00 | 0.00 | 0.00 | 15 | 1015.2 |
| 20260504221032 | 56 | 57 | 15.0 | 19.0 | 0.00 | 0.00 | 0.00 | 15 | 1015.0 |
| 20260504220529 | 56 | 43 | 7.0 | 14.0 | 0.00 | 0.00 | 0.00 | 15 | 1015.5 |
| 20260504220026 | 56 | 3 | 7.0 | 17.0 | 0.00 | 0.00 | 0.00 | 15 | 1015.4 |
| 20260504215522 | 56 | 340 | 10.0 | 19.0 | 0.00 | 0.00 | 0.00 | 15 | 1015.5 |
| 20260504215020 | 58 | 63 | 6.0 | 16.0 | 0.00 | 0.00 | 0.00 | 15 | 1015.2 |
| 20260504214516 | 58 | 346 | 7.0 | 13.0 | 0.00 | 0.00 | 0.00 | 15 | 1015.4 |
| 20260504214012 | 58 | 328 | 7.0 | 12.0 | 0.00 | 0.00 | 0.00 | 15 | 1015.3 |
| 20260504213509 | 56 | 0 | 0.0 | 13.0 | 0.00 | 0.00 | 0.00 | 15 | 1015.6 |
| 20260504213006 | 56 | 46 | 8.0 | 13.0 | 0.00 | 0.00 | 0.00 | 15 | 1015.4 |
| 20260504212502 | 56 | 26 | 5.0 | 13.0 | 0.00 | 0.00 | 0.00 | 15 | 1015.5 |
| 20260504211959 | 56 | 355 | 9.0 | 20.0 | 0.00 | 0.00 | 0.00 | 15 | 1015.5 |
| 20260504211456 | 56 | 75 | 4.0 | 17.0 | 0.00 | 0.00 | 0.00 | 15 | 1015.7 |
| 20260504210953 | 58 | 64 | 3.0 | 15.0 | 0.00 | 0.00 | 0.00 | 15 | 1015.6 |
| 20260504210450 | 57 | 68 | 8.0 | 19.0 | 0.00 | 0.00 | 0.00 | 15 | 1016.0 |
| 20260504205947 | 57 | 7 | 4.0 | 12.0 | 0.00 | 0.00 | 0.00 | 15 | 1015.6 |
| 20260504205444 | 56 | 351 | 9.0 | 19.0 | 0.00 | 0.00 | 0.00 | 15 | 1015.4 |
| 20260504204943 | 59 | 76 | 3.0 | 15.0 | 0.00 | 0.00 | 0.00 | 15 | 1015.9 |
| 20260504204440 | 57 | 273 | 4.0 | 11.0 | 0.00 | 0.00 | 0.00 | 15 | 1016.0 |
| 20260504203940 | 55 | 307 | 6.0 | 10.0 | 0.00 | 0.00 | 0.00 | 15 | 1015.6 |
| 20260504203437 | 56 | 273 | 3.0 | 12.0 | 0.00 | 0.00 | 0.00 | 15 | 1015.9 |
| 20260504202933 | 55 | 283 | 5.0 | 12.0 | 0.00 | 0.00 | 0.00 | 15 | 1016.2 |
| 20260504202429 | 56 | 305 | 6.0 | 15.0 | 0.00 | 0.00 | 0.00 | 15 | 1016.1 |
| 20260504201926 | 56 | 25 | 6.0 | 12.0 | 0.00 | 0.00 | 0.00 | 15 | 1016.1 |
| 20260504201424 | 58 | 31 | 15.0 | 16.0 | 0.00 | 0.00 | 0.00 | 15 | 1016.0 |
| 20260504200921 | 56 | 36 | 10.0 | 18.0 | 0.00 | 0.00 | 0.00 | 15 | 1016.3 |
| 20260504200418 | 58 | 46 | 10.0 | 17.0 | 0.00 | 0.00 | 0.00 | 15 | 1016.2 |
| 20260504195914 | 57 | 304 | 6.0 | 13.0 | 0.00 | 0.00 | 0.00 | 15 | 1016.2 |
| 20260504195410 | 56 | 342 | 5.0 | 15.0 | 0.00 | 0.00 | 0.00 | 15 | 1016.2 |
| 20260504194907 | 57 | 353 | 9.0 | 17.0 | 0.00 | 0.00 | 0.00 | 15 | 1016.2 |
| 20260504194403 | 57 | 62 | 4.0 | 9.0 | 0.00 | 0.00 | 0.00 | 15 | 1016.3 |
| 20260504193859 | 56 | 87 | 7.0 | 14.0 | 0.00 | 0.00 | 0.00 | 15 | 1016.3 |
| 20260504193356 | 56 | 59 | 2.0 | 12.0 | 0.00 | 0.00 | 0.00 | 15 | 1016.3 |
| 20260504192855 | 53 | 348 | 13.0 | 22.0 | 0.00 | 0.00 | 0.00 | 15 | 1016.1 |
| 20260504192352 | 56 | 12 | 7.0 | 11.0 | 0.00 | 0.00 | 0.00 | 15 | 1016.6 |
| 20260504191850 | 55 | 50 | 4.0 | 9.0 | 0.00 | 0.00 | 0.00 | 15 | 1016.7 |
| 20260504191348 | 55 | 47 | 6.0 | 16.0 | 0.00 | 0.00 | 0.00 | 15 | 1016.6 |
| 20260504190843 | 55 | 26 | 1.0 | 10.0 | 0.00 | 0.00 | 0.00 | 15 | 1016.5 |
| 20260504190339 | 56 | 0 | 0.0 | 9.0 | 0.00 | 0.00 | 0.00 | 15 | 1016.5 |
| 20260504185836 | 55 | 346 | 19.0 | 19.0 | 0.00 | 0.00 | 0.00 | 15 | 1016.7 |
| 20260504185333 | 55 | 111 | 3.0 | 17.0 | 0.00 | 0.00 | 0.00 | 15 | 1016.6 |
| 20260504184829 | 55 | 54 | 8.0 | 13.0 | 0.00 | 0.00 | 0.00 | 15 | 1016.5 |
| 20260504184325 | 56 | 240 | 1.0 | 6.0 | 0.00 | 0.00 | 0.00 | 15 | 1017.0 |
| 20260504183821 | 55 | 341 | 7.0 | 10.0 | 0.00 | 0.00 | 0.00 | 15 | 1016.9 |
| 20260504183319 | 55 | 67 | 7.0 | 13.0 | 0.00 | 0.00 | 0.00 | 15 | 1017.0 |
| 20260504182817 | 54 | 278 | 5.0 | 15.0 | 0.00 | 0.00 | 0.00 | 15 | 1017.0 |
| 20260504182314 | 54 | 312 | 14.0 | 16.0 | 0.00 | 0.00 | 0.00 | 15 | 1017.0 |
| 20260504181810 | 56 | 2 | 6.0 | 10.0 | 0.00 | 0.00 | 0.00 | 15 | 1017.2 |
| 20260504181308 | 54 | 103 | 7.0 | 7.0 | 0.00 | 0.00 | 0.00 | 15 | 1017.4 |
| 20260504180807 | 55 | 45 | 5.0 | 13.0 | 0.00 | 0.00 | 0.00 | 15 | 1017.2 |
| 20260504180305 | 54 | 328 | 5.0 | 15.0 | 0.00 | 0.00 | 0.00 | 15 | 1017.5 |
| 20260504175802 | 53 | 315 | 6.0 | 6.0 | 0.00 | 0.00 | 0.00 | 15 | 1017.4 |
| 20260504175259 | 53 | 348 | 10.0 | 13.0 | 0.00 | 0.00 | 0.00 | 15 | 1017.7 |
| 20260504174757 | 54 | 310 | 12.0 | 14.0 | 0.00 | 0.00 | 0.00 | 15 | 1017.4 |
| 20260504174255 | 53 | 317 | 5.0 | 14.0 | 0.00 | 0.00 | 0.00 | 15 | 1017.6 |
| 20260504173751 | 54 | 19 | 10.0 | 12.0 | 0.00 | 0.00 | 0.00 | 15 | 1017.7 |
| 20260504173248 | 50 | 336 | 4.0 | 19.0 | 0.00 | 0.00 | 0.00 | 15 | 1017.6 |
| 20260504172745 | 54 | 47 | 6.0 | 12.0 | 0.00 | 0.00 | 0.00 | 15 | 1017.6 |
| 20260504172241 | 54 | 338 | 7.0 | 9.0 | 0.00 | 0.00 | 0.00 | 15 | 1017.7 |
| 20260504171737 | 53 | 41 | 7.0 | 11.0 | 0.00 | 0.00 | 0.00 | 15 | 1018.0 |
| 20260504171235 | 53 | 25 | 5.0 | 7.0 | 0.00 | 0.00 | 0.00 | 15 | 1017.9 |
| 20260504170732 | 52 | 65 | 2.0 | 12.0 | 0.00 | 0.00 | 0.00 | 15 | 1017.9 |
| 20260504170229 | 53 | 68 | 3.0 | 11.0 | 0.00 | 0.00 | 0.00 | 15 | 1017.9 |
| 20260504160147 | 52 | 237 | 5.0 | 18.0 | 0.00 | 0.00 | 0.00 | 15 | 1017.7 |
| 20260504151115 | 51 | 338 | 13.0 | 24.0 | 0.00 | 0.00 | 0.00 | 15 | 1016.5 |
| 20260504150612 | 51 | 335 | 14.0 | 24.0 | 0.00 | 0.00 | 0.00 | 15 | 1016.2 |
| 20260504150109 | 52 | 348 | 4.0 | 17.0 | 0.00 | 0.00 | 0.00 | 15 | 1016.2 |
| 20260504141038 | 51 | 342 | 13.0 | 23.0 | 0.00 | 0.00 | 0.00 | 15 | 1015.3 |
| 20260504140534 | 51 | 313 | 13.0 | 20.0 | 0.00 | 0.00 | 0.00 | 15 | 1015.4 |
| 20260504130459 | 50 | 295 | 17.0 | 21.0 | 0.00 | 0.00 | 0.00 | 15 | 1013.6 |
| 20260504110346 | 46 | 244 | 5.0 | 8.0 | 0.00 | 0.00 | 0.00 | 15 | 1013.2 |
| 20260504100303 | 46 | 325 | 3.0 | 5.0 | 0.00 | 0.00 | 0.00 | 15 | 1013.4 |
| 20260504081657 | 47 | 238 | 12.0 | 15.0 | 0.00 | 0.00 | 0.00 | 15 | 1013.6 |
| 20260504081153 | 47 | 224 | 10.0 | 13.0 | 0.00 | 0.00 | 0.00 | 15 | 1013.6 |
| 20260504080649 | 47 | 236 | 8.0 | 14.0 | 0.00 | 0.00 | 0.00 | 15 | 1013.9 |
| 20260504080146 | 48 | 228 | 11.0 | 15.0 | 0.00 | 0.00 | 0.00 | 15 | 1013.9 |
| 20260504070114 | 48 | 242 | 15.0 | 15.0 | 0.00 | 0.00 | 0.00 | 15 | 1014.2 |
| 20260504050502 | 49 | 245 | 7.0 | 11.0 | 0.00 | 0.00 | 0.00 | 15 | 1015.0 |
| 20260504045959 | 50 | 254 | 9.0 | 13.0 | 0.00 | 0.00 | 0.00 | 15 | 1015.4 |
| 20260504045455 | 50 | 238 | 11.0 | 14.0 | 0.00 | 0.00 | 0.00 | 15 | 1015.2 |
| 20260504044951 | 50 | 249 | 6.0 | 14.0 | 0.00 | 0.00 | 0.00 | 15 | 1015.5 |
| 20260504044449 | 50 | 251 | 9.0 | 13.0 | 0.00 | 0.00 | 0.00 | 15 | 1015.4 |
| 20260504043946 | 51 | 247 | 10.0 | 14.0 | 0.00 | 0.00 | 0.00 | 15 | 1015.5 |
| 20260504043443 | 51 | 266 | 7.0 | 14.0 | 0.00 | 0.00 | 0.00 | 15 | 1015.4 |
| 20260504042941 | 51 | 247 | 10.0 | 10.0 | 0.00 | 0.00 | 0.00 | 15 | 1015.5 |
| 20260504042437 | 51 | 262 | 5.0 | 8.0 | 0.00 | 0.00 | 0.00 | 15 | 1015.7 |
| 20260504041934 | 51 | 283 | 6.0 | 10.0 | 0.00 | 0.00 | 0.00 | 15 | 1015.7 |
| 20260504041430 | 51 | 247 | 9.0 | 11.0 | 0.00 | 0.00 | 0.00 | 15 | 1015.9 |
| 20260504040926 | 52 | 257 | 11.0 | 12.0 | 0.00 | 0.00 | 0.00 | 15 | 1015.7 |
| 20260504040424 | 52 | 248 | 9.0 | 12.0 | 0.00 | 0.00 | 0.00 | 15 | 1015.9 |
| 20260504035919 | 52 | 247 | 9.0 | 13.0 | 0.00 | 0.00 | 0.00 | 15 | 1015.7 |
| 20260504035417 | 52 | 244 | 8.0 | 11.0 | 0.00 | 0.00 | 0.00 | 15 | 1015.9 |
| 20260504034914 | 53 | 241 | 9.0 | 10.0 | 0.00 | 0.00 | 0.00 | 15 | 1015.9 |
| 20260504034412 | 53 | 245 | 7.0 | 8.0 | 0.00 | 0.00 | 0.00 | 15 | 1016.0 |
| 20260504033908 | 53 | 250 | 10.0 | 11.0 | 0.00 | 0.00 | 0.00 | 15 | 1015.6 |
| 20260504033406 | 53 | 257 | 7.0 | 10.0 | 0.00 | 0.00 | 0.00 | 15 | 1015.7 |
| 20260504032903 | 53 | 259 | 6.0 | 8.0 | 0.00 | 0.00 | 0.00 | 15 | 1015.6 |
| 20260504032400 | 54 | 270 | 5.0 | 8.0 | 0.00 | 0.00 | 0.00 | 15 | 1015.9 |
| 20260504031856 | 53 | 244 | 7.0 | 8.0 | 0.00 | 0.00 | 0.00 | 15 | 1015.9 |
| 20260504031353 | 54 | 270 | 5.0 | 7.0 | 0.00 | 0.00 | 0.00 | 15 | 1016.0 |
| 20260504030849 | 53 | 259 | 5.0 | 7.0 | 0.00 | 0.00 | 0.00 | 15 | 1015.9 |
| 20260504030347 | 54 | 270 | 5.0 | 8.0 | 0.00 | 0.00 | 0.00 | 15 | 1015.5 |
| 20260504025843 | 53 | 263 | 5.0 | 7.0 | 0.00 | 0.00 | 0.00 | 15 | 1015.7 |
| 20260504025340 | 54 | 278 | 5.0 | 6.0 | 0.00 | 0.00 | 0.00 | 15 | 1015.9 |
| 20260504024837 | 53 | 266 | 5.0 | 5.0 | 0.00 | 0.00 | 0.00 | 15 | 1015.9 |
| 20260504024333 | 53 | 261 | 4.0 | 7.0 | 0.00 | 0.00 | 0.00 | 15 | 1015.5 |
| 20260504023830 | 54 | 275 | 4.0 | 7.0 | 0.00 | 0.00 | 0.00 | 15 | 1015.6 |
| 20260504023327 | 53 | 281 | 4.0 | 6.0 | 0.00 | 0.00 | 0.00 | 15 | 1015.6 |
| 20260504022822 | 53 | 275 | 3.0 | 6.0 | 0.00 | 0.00 | 0.00 | 15 | 1015.9 |
| 20260504022320 | 53 | 260 | 4.0 | 6.0 | 0.00 | 0.00 | 0.00 | 15 | 1015.9 |
| 20260504021816 | 54 | 261 | 3.0 | 6.0 | 0.00 | 0.00 | 0.00 | 15 | 1015.6 |
| 20260504021314 | 54 | 265 | 4.0 | 5.0 | 0.00 | 0.00 | 0.00 | 15 | 1015.7 |
| 20260504020811 | 53 | 286 | 3.0 | 3.0 | 0.00 | 0.00 | 0.00 | 15 | 1015.6 |
| 20260504020307 | 53 | 270 | 1.0 | 3.0 | 0.00 | 0.00 | 0.00 | 15 | 1015.6 |
| 20260504015803 | 54 | 270 | 2.0 | 3.0 | 0.00 | 0.00 | 0.00 | 15 | 1015.5 |
| 20260504015300 | 56 | 265 | 0.0 | 2.0 | 0.00 | 0.00 | 0.00 | 15 | 1015.4 |
| 20260504014755 | 57 | 234 | 1.0 | 3.0 | 0.00 | 0.00 | 0.00 | 15 | 1015.7 |
| 20260504014252 | 59 | 229 | 2.0 | 3.0 | 0.00 | 0.00 | 0.00 | 15 | 1015.4 |
| 20260504013750 | 61 | 274 | 3.0 | 3.0 | 0.00 | 0.00 | 0.00 | 15 | 1015.6 |
| 20260504013247 | 64 | 291 | 1.0 | 2.0 | 0.00 | 0.00 | 0.00 | 15 | 1015.9 |
| 20260504012743 | 64 | 254 | 2.0 | 2.0 | 0.00 | 0.00 | 0.00 | 15 | 1015.9 |
| 20260504012242 | 64 | 252 | 2.0 | 3.0 | 0.00 | 0.00 | 0.00 | 15 | 1015.9 |
| 20260504011738 | 66 | 255 | 2.0 | 2.0 | 0.00 | 0.00 | 0.00 | 15 | 1015.4 |
| 20260504011235 | 66 | 254 | 0.0 | 0.0 | 0.00 | 0.00 | 0.00 | 15 | 1015.9 |
| 20260504010731 | 64 | 300 | 1.0 | 3.0 | 0.00 | 0.00 | 0.00 | 15 | 1015.9 |
| 20260504010227 | 64 | 315 | 5.0 | 5.0 | 0.00 | 0.00 | 0.00 | 15 | 1016.1 |
| 20260504005724 | 64 | 317 | 4.0 | 4.0 | 0.00 | 0.00 | 0.00 | 15 | 1016.1 |
| 20260504005221 | 64 | 341 | 0.0 | 5.0 | 0.00 | 0.00 | 0.00 | 15 | 1016.0 |
| 20260504004718 | 65 | 23 | 1.0 | 3.0 | 0.00 | 0.00 | 0.00 | 15 | 1016.0 |
| 20260504004215 | 65 | 324 | 3.0 | 4.0 | 0.00 | 0.00 | 0.00 | 15 | 1016.0 |
| 20260504003712 | 64 | 303 | 4.0 | 5.0 | 0.00 | 0.00 | 0.00 | 15 | 1016.1 |
| 20260504003209 | 64 | 352 | 3.0 | 7.0 | 0.00 | 0.00 | 0.00 | 15 | 1016.2 |
| 20260504002705 | 65 | 243 | 2.0 | 4.0 | 0.00 | 0.00 | 0.00 | 15 | 1016.1 |
| 20260504002202 | 64 | 279 | 4.0 | 8.0 | 0.00 | 0.00 | 0.00 | 15 | 1016.3 |
| 20260504001655 | 64 | 298 | 7.0 | 8.0 | 0.00 | 0.00 | 0.00 | 15 | 1016.3 |
| 20260504001151 | 64 | 297 | 4.0 | 6.0 | 0.00 | 0.00 | 0.00 | 15 | 1016.6 |
| 20260504000648 | 65 | 315 | 2.0 | 5.0 | 0.00 | 0.00 | 0.00 | 15 | 1016.6 |
| 20260504000145 | 65 | 289 | 3.0 | 7.0 | 0.00 | 0.00 | 0.00 | 15 | 1016.6 |
| 20260503235643 | 64 | 18 | 1.0 | 7.0 | 0.00 | 0.00 | 0.00 | 15 | 1016.6 |
| 20260503235140 | 65 | 37 | 2.0 | 5.0 | 0.00 | 0.00 | 0.00 | 15 | 1016.6 |
| 20260503234638 | 65 | 45 | 3.0 | 8.0 | 0.00 | 0.00 | 0.00 | 15 | 1016.6 |
| 20260503234136 | 64 | 327 | 4.0 | 6.0 | 0.00 | 0.00 | 0.00 | 15 | 1016.8 |
| 20260503233632 | 62 | 305 | 5.0 | 7.0 | 0.00 | 0.00 | 0.00 | 15 | 1016.8 |
| 20260503233128 | 61 | 277 | 4.0 | 9.0 | 0.00 | 0.00 | 0.00 | 15 | 1016.7 |
| 20260503232625 | 63 | 43 | 6.0 | 15.0 | 0.00 | 0.00 | 0.00 | 15 | 1016.7 |
| 20260503232123 | 64 | 290 | 4.0 | 17.0 | 0.00 | 0.00 | 0.00 | 15 | 1016.8 |